Location: Barcelona
(41.3830°N, 2.1830°E)
Time: 15:22:15
(UTC+02:00)

ISS - Pass Details

Date: 14 September 2019
Orbit: 411 x 421 km, 51.6° (Epoch: 18 September)

Event Time Altitude Azimuth Distance (km) Brightness Sun altitude
Exits shadow 04:45:11 15° 66° (ENE) 1,204 -0.7 -29.5°
Drops below altitude 10° 04:46:06 10° 77° (ENE) 1,489 -0.2 -29.4°
Sets 04:48:28 0° 92° (E) 2,351 0.8 -29.0°
